Wetterdaten: Sonntag, 23.06.2013
Datum Zeit Temperatur Luftfeuchte Luftdruck Regen Wind Richtung Richtung Taupunkt Windchill Windben
23.06.2013 00:00 11,9 C 92 % 1019,9 hPa 0,0 l/m 0,0 km/h (0 Bft) W 270 10,6 C 11,8 C 0,0 km/h (0 Bft)
23.06.2013 00:05 11,9 C 92 % 1020,0 hPa 0,0 l/m 0,0 km/h (0 Bft) N-NO 22 10,6 C 11,8 C 0,0 km/h (0 Bft)
23.06.2013 00:10 11,8 C 92 % 1020,0 hPa 0,0 l/m 0,0 km/h (0 Bft) W-SW 247 10,5 C 11,7 C 0,0 km/h (0 Bft)
23.06.2013 00:15 11,8 C 92 % 1020,0 hPa 0,0 l/m 0,0 km/h (0 Bft) W-NW 292 10,5 C 11,7 C 0,0 km/h (0 Bft)
23.06.2013 00:20 11,8 C 92 % 1020,0 hPa 0,0 l/m 0,3 km/h (0 Bft) W-SW 247 10,5 C 11,7 C 0,0 km/h (0 Bft)
23.06.2013 00:25 11,7 C 92 % 1019,9 hPa 0,0 l/m 0,3 km/h (0 Bft) W-SW 247 10,4 C 11,7 C 0,0 km/h (0 Bft)
23.06.2013 00:30 11,6 C 92 % 1019,9 hPa 0,0 l/m 0,0 km/h (0 Bft) W-SW 247 10,3 C 11,6 C 0,0 km/h (0 Bft)
23.06.2013 00:35 11,6 C 92 % 1019,9 hPa 0,0 l/m 0,0 km/h (0 Bft) S 180 10,3 C 11,4 C 0,0 km/h (0 Bft)
23.06.2013 00:40 11,2 C 92 % 1019,9 hPa 0,0 l/m 0,0 km/h (0 Bft) W-SW 247 9,9 C 11,1 C 0,0 km/h (0 Bft)
23.06.2013 00:45 11,0 C 92 % 1020,0 hPa 0,0 l/m 0,0 km/h (0 Bft) S-SW 202 9,8 C 11,1 C 0,0 km/h (0 Bft)
23.06.2013 00:50 10,9 C 92 % 1020,0 hPa 0,0 l/m 0,0 km/h (0 Bft) W-SW 247 9,7 C 10,7 C 0,0 km/h (0 Bft)
23.06.2013 00:55 10,9 C 92 % 1020,0 hPa 0,0 l/m 0,0 km/h (0 Bft) S 180 9,7 C 10,6 C 0,0 km/h (0 Bft)
23.06.2013 01:00 10,8 C 92 % 1020,0 hPa 0,0 l/m 0,0 km/h (0 Bft) N-NO 22 9,6 C 10,4 C 0,0 km/h (0 Bft)
23.06.2013 01:05 10,7 C 92 % 1019,9 hPa 0,0 l/m 0,0 km/h (0 Bft) N-NO 22 9,5 C 10,4 C 0,0 km/h (0 Bft)
23.06.2013 01:10 10,8 C 92 % 1019,9 hPa 0,0 l/m 0,0 km/h (0 Bft) N-NW 337 9,6 C 10,4 C 0,0 km/h (0 Bft)
23.06.2013 01:15 10,8 C 92 % 1019,9 hPa 0,0 l/m 0,0 km/h (0 Bft) N 360 9,6 C 10,3 C 0,0 km/h (0 Bft)
23.06.2013 01:20 10,6 C 93 % 1019,9 hPa 0,0 l/m 0,0 km/h (0 Bft) N-NW 337 9,5 C 10,3 C 0,0 km/h (0 Bft)
23.06.2013 01:25 10,5 C 93 % 1019,8 hPa 0,0 l/m 0,0 km/h (0 Bft) N-NO 22 9,4 C 10,2 C 0,0 km/h (0 Bft)
23.06.2013 01:30 10,4 C 92 % 1019,8 hPa 0,0 l/m 0,0 km/h (0 Bft) N-NO 22 9,2 C 10,1 C 0,0 km/h (0 Bft)
23.06.2013 01:35 10,3 C 92 % 1019,8 hPa 0,0 l/m 0,0 km/h (0 Bft) N 360 9,1 C 10,1 C 0,0 km/h (0 Bft)
23.06.2013 01:40 10,4 C 93 % 1019,8 hPa 0,0 l/m 0,0 km/h (0 Bft) NO 45 9,3 C 10,0 C 0,0 km/h (0 Bft)
23.06.2013 01:45 10,2 C 92 % 1019,8 hPa 0,0 l/m 0,0 km/h (0 Bft) NO 45 9,0 C 10,0 C 0,0 km/h (0 Bft)
23.06.2013 01:50 10,3 C 92 % 1019,8 hPa 0,0 l/m 0,2 km/h (0 Bft) N-NO 22 9,1 C 10,0 C 0,0 km/h (0 Bft)
23.06.2013 01:55 10,3 C 93 % 1019,8 hPa 0,0 l/m 0,2 km/h (0 Bft) N 360 9,2 C 10,0 C 0,0 km/h (0 Bft)
23.06.2013 02:00 10,1 C 93 % 1019,8 hPa 0,0 l/m 0,0 km/h (0 Bft) NO 45 9,0 C 10,0 C 0,0 km/h (0 Bft)
23.06.2013 02:05 10,3 C 93 % 1019,7 hPa 0,0 l/m 0,3 km/h (0 Bft) S-SW 202 9,2 C 10,0 C 0,0 km/h (0 Bft)
23.06.2013 02:10 10,2 C 93 % 1019,7 hPa 0,0 l/m 0,5 km/h (0 Bft) SW 225 9,1 C 10,1 C 0,0 km/h (0 Bft)
23.06.2013 02:15 10,2 C 93 % 1019,7 hPa 0,0 l/m 0,5 km/h (0 Bft) S-SW 202 9,1 C 10,2 C 2,1 km/h (1 Bft)
23.06.2013 02:20 10,2 C 93 % 1019,7 hPa 0,0 l/m 0,3 km/h (0 Bft) S 180 9,1 C 10,2 C 0,0 km/h (0 Bft)
23.06.2013 02:25 10,3 C 93 % 1019,6 hPa 0,0 l/m 0,2 km/h (0 Bft) W-SW 247 9,2 C 10,1 C 0,0 km/h (0 Bft)
23.06.2013 02:30 10,2 C 93 % 1019,6 hPa 0,0 l/m 0,0 km/h (0 Bft) O 90 9,1 C 10,1 C 0,0 km/h (0 Bft)
23.06.2013 02:35 10,1 C 93 % 1019,6 hPa 0,0 l/m 0,0 km/h (0 Bft) S 180 9,0 C 10,0 C 0,0 km/h (0 Bft)
23.06.2013 02:40 10,0 C 93 % 1019,6 hPa 0,0 l/m 0,2 km/h (0 Bft) S 180 8,9 C 10,1 C 0,0 km/h (0 Bft)
23.06.2013 02:45 10,1 C 93 % 1019,6 hPa 0,0 l/m 0,2 km/h (0 Bft) O 90 9,0 C 10,0 C 0,0 km/h (0 Bft)
23.06.2013 02:50 10,1 C 93 % 1019,6 hPa 0,0 l/m 0,0 km/h (0 Bft) O 90 9,0 C 10,1 C 0,0 km/h (0 Bft)
23.06.2013 02:55 10,2 C 93 % 1019,6 hPa 0,0 l/m 0,0 km/h (0 Bft) S 180 9,1 C 10,0 C 0,0 km/h (0 Bft)
23.06.2013 03:00 10,1 C 93 % 1019,6 hPa 0,0 l/m 0,0 km/h (0 Bft) O-SO 112 9,0 C 10,0 C 0,0 km/h (0 Bft)
23.06.2013 03:05 10,2 C 93 % 1019,4 hPa 0,0 l/m 0,0 km/h (0 Bft) O 90 9,1 C 10,0 C 0,0 km/h (0 Bft)
23.06.2013 03:10 10,1 C 93 % 1019,4 hPa 0,0 l/m 0,0 km/h (0 Bft) S-SW 202 9,0 C 10,0 C 0,0 km/h (0 Bft)
23.06.2013 03:15 10,0 C 93 % 1019,4 hPa 0,0 l/m 0,0 km/h (0 Bft) SO 135 8,9 C 10,0 C 0,0 km/h (0 Bft)
23.06.2013 03:20 10,2 C 93 % 1019,4 hPa 0,0 l/m 0,2 km/h (0 Bft) NO 45 9,1 C 10,0 C 0,0 km/h (0 Bft)
23.06.2013 03:25 10,1 C 93 % 1019,3 hPa 0,0 l/m 0,2 km/h (0 Bft) SO 135 9,0 C 10,0 C 0,0 km/h (0 Bft)
23.06.2013 03:30 10,0 C 93 % 1019,3 hPa 0,0 l/m 0,2 km/h (0 Bft) O-SO 112 8,9 C 10,0 C 0,0 km/h (0 Bft)
23.06.2013 03:35 10,2 C 93 % 1019,3 hPa 0,0 l/m 0,2 km/h (0 Bft) O-SO 112 9,1 C 10,0 C 0,0 km/h (0 Bft)
23.06.2013 03:40 10,0 C 93 % 1019,3 hPa 0,0 l/m 0,2 km/h (0 Bft) NO 45 8,9 C 10,0 C 0,0 km/h (0 Bft)
23.06.2013 03:45 10,0 C 93 % 1019,1 hPa 0,0 l/m 0,3 km/h (0 Bft) NO 45 8,9 C 9,9 C 0,0 km/h (0 Bft)
23.06.2013 03:50 10,1 C 93 % 1019,1 hPa 0,0 l/m 0,3 km/h (0 Bft) O-SO 112 9,0 C 10,0 C 0,0 km/h (0 Bft)
23.06.2013 03:55 10,2 C 93 % 1019,1 hPa 0,0 l/m 0,8 km/h (0 Bft) SO 135 9,1 C 10,2 C 2,1 km/h (1 Bft)
23.06.2013 04:00 10,2 C 93 % 1019,1 hPa 0,0 l/m 0,8 km/h (0 Bft) SO 135 9,1 C 10,3 C 0,0 km/h (0 Bft)
23.06.2013 04:05 10,2 C 93 % 1019,1 hPa 0,0 l/m 0,5 km/h (0 Bft) N-NO 22 9,1 C 10,3 C 0,0 km/h (0 Bft)
23.06.2013 04:10 10,2 C 93 % 1019,1 hPa 0,0 l/m 0,5 km/h (0 Bft) W-SW 247 9,1 C 10,4 C 0,0 km/h (0 Bft)
23.06.2013 04:15 10,2 C 93 % 1019,1 hPa 0,0 l/m 0,3 km/h (0 Bft) N-NW 337 9,1 C 10,3 C 2,7 km/h (1 Bft)
23.06.2013 04:20 10,2 C 93 % 1019,1 hPa 0,0 l/m 0,8 km/h (0 Bft) W-SW 247 9,1 C 10,4 C 2,9 km/h (1 Bft)
23.06.2013 04:25 10,2 C 93 % 1019,1 hPa 0,0 l/m 1,3 km/h (1 Bft) O-NO 67 9,1 C 10,4 C 0,0 km/h (0 Bft)
23.06.2013 04:30 10,2 C 93 % 1019,1 hPa 0,0 l/m 0,5 km/h (0 Bft) S 180 9,1 C 10,1 C 0,0 km/h (0 Bft)
23.06.2013 04:35 10,1 C 93 % 1019,1 hPa 0,0 l/m 0,2 km/h (0 Bft) N-NO 22 9,0 C 10,0 C 0,0 km/h (0 Bft)
23.06.2013 04:40 9,9 C 93 % 1019,1 hPa 0,0 l/m 0,2 km/h (0 Bft) W-SW 247 8,8 C 9,8 C 0,0 km/h (0 Bft)
23.06.2013 04:45 10,0 C 93 % 1019,2 hPa 0,0 l/m 0,8 km/h (0 Bft) NO 45 8,9 C 9,7 C 3,9 km/h (1 Bft)
23.06.2013 04:50 9,7 C 93 % 1019,2 hPa 0,0 l/m 0,6 km/h (0 Bft) N-NO 22 8,6 C 9,7 C 0,0 km/h (0 Bft)
23.06.2013 04:55 9,7 C 93 % 1019,2 hPa 0,0 l/m 0,3 km/h (0 Bft) O-SO 112 8,6 C 9,6 C 0,0 km/h (0 Bft)
23.06.2013 05:00 9,4 C 93 % 1019,2 hPa 0,0 l/m 0,2 km/h (0 Bft) O-SO 112 8,3 C 9,4 C 0,0 km/h (0 Bft)
23.06.2013 05:05 9,4 C 93 % 1019,1 hPa 0,0 l/m 0,0 km/h (0 Bft) S-SW 202 8,3 C 9,3 C 0,0 km/h (0 Bft)
23.06.2013 05:10 9,4 C 93 % 1019,1 hPa 0,0 l/m 0,0 km/h (0 Bft) NO 45 8,3 C 9,2 C 0,0 km/h (0 Bft)
23.06.2013 05:15 9,5 C 93 % 1019,1 hPa 0,0 l/m 0,2 km/h (0 Bft) O-SO 112 8,4 C 9,3 C 1,8 km/h (1 Bft)
23.06.2013 05:20 10,0 C 93 % 1019,1 hPa 0,0 l/m 1,1 km/h (1 Bft) O-SO 112 8,9 C 9,5 C 0,0 km/h (0 Bft)
23.06.2013 05:25 10,0 C 93 % 1019,2 hPa 0,0 l/m 2,1 km/h (1 Bft) NO 45 8,9 C 9,7 C 4,0 km/h (1 Bft)
23.06.2013 05:30 10,2 C 93 % 1019,2 hPa 0,0 l/m 2,7 km/h (1 Bft) O 90 9,1 C 10,0 C 3,5 km/h (1 Bft)
23.06.2013 05:35 10,2 C 94 % 1019,2 hPa 0,0 l/m 2,4 km/h (1 Bft) O-SO 112 9,3 C 10,1 C 1,9 km/h (1 Bft)
23.06.2013 05:40 10,3 C 94 % 1019,2 hPa 0,0 l/m 1,3 km/h (1 Bft) O 90 9,4 C 10,0 C 2,9 km/h (1 Bft)
23.06.2013 05:45 10,4 C 94 % 1019,1 hPa 0,0 l/m 1,3 km/h (1 Bft) O 90 9,5 C 10,2 C 2,6 km/h (1 Bft)
23.06.2013 05:50 10,5 C 94 % 1019,1 hPa 0,0 l/m 2,3 km/h (1 Bft) O 90 9,6 C 10,7 C 3,7 km/h (1 Bft)
23.06.2013 05:55 10,7 C 94 % 1019,1 hPa 0,0 l/m 2,6 km/h (1 Bft) O 90 9,8 C 10,8 C 3,9 km/h (1 Bft)
23.06.2013 06:00 10,9 C 94 % 1019,1 hPa 0,0 l/m 3,1 km/h (1 Bft) O 90 10,0 C 11,1 C 4,5 km/h (1 Bft)
23.06.2013 06:05 11,1 C 94 % 1019,0 hPa 0,0 l/m 3,2 km/h (1 Bft) O-SO 112 10,2 C 11,7 C 3,9 km/h (1 Bft)
23.06.2013 06:10 12,4 C 93 % 1019,0 hPa 0,0 l/m 3,1 km/h (1 Bft) O-SO 112 11,3 C 12,5 C 4,7 km/h (1 Bft)
23.06.2013 06:15 12,7 C 93 % 1019,0 hPa 0,0 l/m 2,9 km/h (1 Bft) O 90 11,6 C 13,0 C 4,3 km/h (1 Bft)
23.06.2013 06:20 12,9 C 92 % 1019,0 hPa 0,0 l/m 2,6 km/h (1 Bft) O 90 11,6 C 13,7 C 2,6 km/h (1 Bft)
23.06.2013 06:25 13,4 C 90 % 1019,2 hPa 0,0 l/m 2,6 km/h (1 Bft) O 90 11,8 C 14,0 C 3,2 km/h (1 Bft)
23.06.2013 06:30 14,4 C 89 % 1019,2 hPa 0,0 l/m 1,8 km/h (1 Bft) O 90 12,6 C 15,0 C 3,9 km/h (1 Bft)
23.06.2013 06:35 14,8 C 89 % 1019,2 hPa 0,0 l/m 1,6 km/h (1 Bft) O-NO 67 13,0 C 15,3 C 3,4 km/h (1 Bft)
23.06.2013 06:40 15,4 C 87 % 1019,2 hPa 0,0 l/m 1,8 km/h (1 Bft) S 180 13,2 C 16,2 C 6,6 km/h (2 Bft)
23.06.2013 06:45 16,5 C 85 % 1019,4 hPa 0,0 l/m 1,1 km/h (1 Bft) NO 45 14,0 C 16,9 C 0,0 km/h (0 Bft)
23.06.2013 06:50 17,1 C 81 % 1019,4 hPa 0,0 l/m 1,3 km/h (1 Bft) O 90 13,8 C 17,4 C 2,1 km/h (1 Bft)
23.06.2013 06:55 18,0 C 79 % 1019,4 hPa 0,0 l/m 1,4 km/h (1 Bft) S-SO 157 14,3 C 17,9 C 3,4 km/h (1 Bft)
23.06.2013 07:00 18,5 C 76 % 1019,4 hPa 0,0 l/m 1,3 km/h (1 Bft) O 90 14,2 C 18,5 C 1,8 km/h (1 Bft)
23.06.2013 07:05 19,0 C 73 % 1019,2 hPa 0,0 l/m 2,3 km/h (1 Bft) S 180 14,0 C 18,8 C 3,2 km/h (1 Bft)
23.06.2013 07:10 20,1 C 71 % 1019,2 hPa 0,0 l/m 1,9 km/h (1 Bft) S-SW 202 14,7 C 19,7 C 3,1 km/h (1 Bft)
23.06.2013 07:15 20,5 C 68 % 1019,2 hPa 0,0 l/m 1,6 km/h (1 Bft) S 180 14,4 C 20,3 C 3,4 km/h (1 Bft)
23.06.2013 07:20 19,6 C 69 % 1019,2 hPa 0,0 l/m 1,4 km/h (1 Bft) O-SO 112 13,8 C 20,7 C 0,0 km/h (0 Bft)
23.06.2013 07:25 18,2 C 69 % 1019,2 hPa 0,0 l/m 1,4 km/h (1 Bft) O-SO 112 12,4 C 20,2 C 1,6 km/h (1 Bft)
23.06.2013 07:30 16,8 C 72 % 1019,2 hPa 0,0 l/m 1,6 km/h (1 Bft) O 90 11,7 C 18,9 C 3,7 km/h (1 Bft)
23.06.2013 07:35 16,5 C 73 % 1019,2 hPa 0,0 l/m 1,6 km/h (1 Bft) O-SO 112 11,6 C 18,0 C 2,4 km/h (1 Bft)
23.06.2013 07:40 16,1 C 75 % 1019,2 hPa 0,0 l/m 1,0 km/h (0 Bft) S 180 11,7 C 17,2 C 2,7 km/h (1 Bft)
23.06.2013 07:45 16,2 C 75 % 1019,2 hPa 0,0 l/m 0,5 km/h (0 Bft) S-SO 157 11,8 C 17,0 C 0,0 km/h (0 Bft)
23.06.2013 07:50 16,6 C 76 % 1019,2 hPa 0,0 l/m 0,5 km/h (0 Bft) SW 225 12,3 C 17,0 C 1,9 km/h (1 Bft)
23.06.2013 07:55 17,6 C 74 % 1019,2 hPa 0,0 l/m 0,3 km/h (0 Bft) S-SW 202 12,9 C 17,5 C 0,0 km/h (0 Bft)
23.06.2013 08:00 18,7 C 69 % 1019,2 hPa 0,0 l/m 1,3 km/h (1 Bft) S-SO 157 12,9 C 19,4 C 2,9 km/h (1 Bft)
23.06.2013 08:05 17,7 C 70 % 1019,6 hPa 0,0 l/m 1,3 km/h (1 Bft) SW 225 12,2 C 19,1 C 1,8 km/h (1 Bft)
23.06.2013 08:10 17,3 C 71 % 1019,6 hPa 0,0 l/m 0,8 km/h (0 Bft) SW 225 12,0 C 18,7 C 2,4 km/h (1 Bft)
23.06.2013 08:15 16,6 C 72 % 1019,6 hPa 0,0 l/m 0,6 km/h (0 Bft) O-SO 112 11,5 C 18,3 C 0,0 km/h (0 Bft)
23.06.2013 08:20 16,0 C 74 % 1019,6 hPa 0,0 l/m 0,3 km/h (0 Bft) NO 45 11,4 C 17,8 C 0,0 km/h (0 Bft)
23.06.2013 08:25 16,2 C 75 % 1019,4 hPa 0,0 l/m 0,0 km/h (0 Bft) NO 45 11,8 C 17,8 C 0,0 km/h (0 Bft)
23.06.2013 08:30 17,0 C 74 % 1019,4 hPa 0,0 l/m 0,0 km/h (0 Bft) O-NO 67 12,3 C 18,0 C 0,0 km/h (0 Bft)
23.06.2013 08:35 17,4 C 73 % 1019,4 hPa 0,0 l/m 0,0 km/h (0 Bft) NO 45 12,5 C 18,5 C 0,0 km/h (0 Bft)
23.06.2013 08:40 18,1 C 72 % 1019,4 hPa 0,0 l/m 0,0 km/h (0 Bft) O-SO 112 13,0 C 19,4 C 0,0 km/h (0 Bft)
23.06.2013 08:45 18,1 C 71 % 1019,6 hPa 0,0 l/m 0,2 km/h (0 Bft) S 180 12,8 C 19,9 C 0,0 km/h (0 Bft)
23.06.2013 08:50 17,3 C 72 % 1019,6 hPa 0,0 l/m 0,3 km/h (0 Bft) W-NW 292 12,2 C 19,7 C 2,1 km/h (1 Bft)
23.06.2013 08:55 17,0 C 72 % 1019,6 hPa 0,0 l/m 0,6 km/h (0 Bft) W-SW 247 11,9 C 19,2 C 0,0 km/h (0 Bft)
23.06.2013 09:00 17,1 C 73 % 1019,6 hPa 0,0 l/m 0,5 km/h (0 Bft) W-SW 247 12,2 C 18,9 C 0,0 km/h (0 Bft)
23.06.2013 09:05 17,4 C 73 % 1019,8 hPa 0,0 l/m 0,0 km/h (0 Bft) O-SO 112 12,5 C 19,1 C 0,0 km/h (0 Bft)
23.06.2013 09:10 17,9 C 71 % 1019,8 hPa 0,0 l/m 0,6 km/h (0 Bft) N 360 12,6 C 19,3 C 1,8 km/h (1 Bft)
23.06.2013 09:15 18,9 C 70 % 1019,8 hPa 0,0 l/m 1,1 km/h (1 Bft) W-SW 247 13,3 C 20,0 C 1,9 km/h (1 Bft)
23.06.2013 09:20 18,2 C 68 % 1019,8 hPa 0,0 l/m 1,1 km/h (1 Bft) W-SW 247 12,2 C 20,2 C 1,8 km/h (1 Bft)
23.06.2013 09:25 19,0 C 69 % 1020,1 hPa 0,0 l/m 1,1 km/h (1 Bft) W-SW 247 13,2 C 20,4 C 3,4 km/h (1 Bft)
23.06.2013 09:30 18,8 C 65 % 1020,1 hPa 0,0 l/m 2,6 km/h (1 Bft) W-SW 247 12,1 C 20,5 C 8,2 km/h (2 Bft)
23.06.2013 09:35 19,0 C 65 % 1020,1 hPa 0,0 l/m 3,2 km/h (1 Bft) W-SW 247 12,3 C 20,5 C 2,7 km/h (1 Bft)
23.06.2013 09:40 19,2 C 64 % 1020,1 hPa 0,0 l/m 2,4 km/h (1 Bft) S-SW 202 12,2 C 21,0 C 8,0 km/h (2 Bft)
23.06.2013 09:45 19,7 C 66 % 1020,1 hPa 0,0 l/m 2,3 km/h (1 Bft) S-SW 202 13,2 C 21,0 C 4,8 km/h (1 Bft)
23.06.2013 09:50 21,1 C 58 % 1020,1 hPa 0,0 l/m 4,2 km/h (1 Bft) SO 135 12,5 C 21,9 C 10,6 km/h (2 Bft)
23.06.2013 09:55 20,6 C 61 % 1020,1 hPa 0,0 l/m 4,7 km/h (1 Bft) S 180 12,8 C 22,1 C 7,1 km/h (2 Bft)
23.06.2013 10:00 20,1 C 60 % 1020,1 hPa 0,0 l/m 4,5 km/h (1 Bft) S-SW 202 12,1 C 21,7 C 5,3 km/h (1 Bft)
23.06.2013 10:05 20,1 C 59 % 1020,2 hPa 0,0 l/m 4,2 km/h (1 Bft) W-NW 292 11,8 C 21,7 C 4,3 km/h (1 Bft)
23.06.2013 10:10 19,8 C 60 % 1020,2 hPa 0,0 l/m 5,3 km/h (1 Bft) SW 225 11,8 C 21,5 C 14,6 km/h (3 Bft)
23.06.2013 10:15 19,2 C 61 % 1020,2 hPa 0,0 l/m 7,2 km/h (2 Bft) S 180 11,5 C 20,7 C 10,3 km/h (2 Bft)
23.06.2013 10:20 19,2 C 63 % 1020,2 hPa 0,0 l/m 7,2 km/h (2 Bft) S 180 12,0 C 20,2 C 16,3 km/h (3 Bft)
23.06.2013 10:25 19,5 C 64 % 1020,2 hPa 0,0 l/m 7,1 km/h (2 Bft) O-SO 112 12,5 C 20,0 C 9,3 km/h (2 Bft)
23.06.2013 10:30 18,9 C 63 % 1020,2 hPa 0,0 l/m 7,7 km/h (2 Bft) W-SW 247 11,7 C 19,6 C 16,7 km/h (3 Bft)
23.06.2013 10:35 18,9 C 64 % 1020,2 hPa 0,0 l/m 7,7 km/h (2 Bft) S-SW 202 11,9 C 19,3 C 11,1 km/h (2 Bft)
23.06.2013 10:40 19,7 C 62 % 1020,2 hPa 0,0 l/m 7,4 km/h (2 Bft) S 180 12,2 C 20,1 C 9,2 km/h (2 Bft)
23.06.2013 10:45 19,8 C 63 % 1020,2 hPa 0,0 l/m 6,8 km/h (2 Bft) S-SW 202 12,5 C 20,4 C 6,9 km/h (2 Bft)
23.06.2013 10:50 19,9 C 61 % 1020,2 hPa 0,0 l/m 7,1 km/h (2 Bft) S-SW 202 12,2 C 20,6 C 10,6 km/h (2 Bft)
23.06.2013 10:55 20,1 C 62 % 1020,2 hPa 0,0 l/m 7,6 km/h (2 Bft) S 180 12,6 C 20,4 C 7,6 km/h (2 Bft)
23.06.2013 11:00 21,2 C 58 % 1020,2 hPa 0,0 l/m 7,4 km/h (2 Bft) W-SW 247 12,6 C 21,0 C 13,0 km/h (3 Bft)
23.06.2013 11:05 20,9 C 58 % 1020,2 hPa 0,0 l/m 7,2 km/h (2 Bft) S 180 12,3 C 21,5 C 9,2 km/h (2 Bft)
23.06.2013 11:10 19,0 C 61 % 1020,2 hPa 0,0 l/m 7,1 km/h (2 Bft) S 180 11,3 C 20,6 C 8,5 km/h (2 Bft)
23.06.2013 11:15 19,1 C 63 % 1020,2 hPa 0,0 l/m 6,4 km/h (2 Bft) S-SO 157 11,9 C 20,4 C 3,1 km/h (1 Bft)
23.06.2013 11:20 18,8 C 64 % 1020,2 hPa 0,0 l/m 6,0 km/h (2 Bft) S-SW 202 11,8 C 20,0 C 8,4 km/h (2 Bft)
23.06.2013 11:25 18,3 C 66 % 1020,4 hPa 0,0 l/m 6,0 km/h (2 Bft) S-SW 202 11,8 C 19,4 C 7,4 km/h (2 Bft)
23.06.2013 11:30 17,5 C 68 % 1020,4 hPa 0,0 l/m 6,0 km/h (2 Bft) S-SO 157 11,5 C 18,5 C 6,9 km/h (2 Bft)
23.06.2013 11:35 17,3 C 69 % 1020,4 hPa 0,0 l/m 5,5 km/h (1 Bft) S-SO 157 11,6 C 18,1 C 6,1 km/h (2 Bft)
23.06.2013 11:40 16,9 C 70 % 1020,4 hPa 0,0 l/m 5,1 km/h (1 Bft) W-SW 247 11,4 C 17,7 C 7,1 km/h (2 Bft)
23.06.2013 11:45 16,6 C 71 % 1019,9 hPa 0,0 l/m 5,3 km/h (1 Bft) W-SW 247 11,3 C 17,3 C 8,5 km/h (2 Bft)
23.06.2013 11:50 16,1 C 73 % 1019,9 hPa 0,0 l/m 6,3 km/h (2 Bft) W 270 11,3 C 16,6 C 8,9 km/h (2 Bft)
23.06.2013 11:55 15,9 C 75 % 1019,9 hPa 0,0 l/m 6,4 km/h (2 Bft) S-SW 202 11,5 C 16,3 C 4,2 km/h (1 Bft)
23.06.2013 12:00 15,8 C 76 % 1019,9 hPa 0,0 l/m 7,2 km/h (2 Bft) S-SO 157 11,6 C 15,5 C 12,4 km/h (3 Bft)
23.06.2013 12:05 15,8 C 76 % 1019,8 hPa 0,0 l/m 7,1 km/h (2 Bft) W-SW 247 11,6 C 15,4 C 8,2 km/h (2 Bft)
23.06.2013 12:10 15,5 C 76 % 1019,8 hPa 0,0 l/m 7,2 km/h (2 Bft) S-SW 202 11,3 C 15,2 C 6,0 km/h (2 Bft)
23.06.2013 12:15 15,2 C 77 % 1019,8 hPa 0,0 l/m 7,9 km/h (2 Bft) S-SO 157 11,2 C 14,4 C 10,6 km/h (2 Bft)
23.06.2013 12:20 14,8 C 78 % 1019,8 hPa 0,0 l/m 8,0 km/h (2 Bft) W-SW 247 11,0 C 13,7 C 4,8 km/h (1 Bft)
23.06.2013 12:25 15,0 C 78 % 1019,8 hPa 0,0 l/m 6,6 km/h (2 Bft) S 180 11,2 C 14,7 C 4,8 km/h (1 Bft)
23.06.2013 12:30 15,4 C 78 % 1019,8 hPa 0,0 l/m 5,0 km/h (1 Bft) S-SW 202 11,6 C 15,2 C 5,3 km/h (1 Bft)
23.06.2013 12:35 15,5 C 77 % 1019,8 hPa 0,0 l/m 6,3 km/h (2 Bft) SW 225 11,5 C 15,4 C 6,6 km/h (2 Bft)
23.06.2013 12:40 15,6 C 77 % 1019,8 hPa 0,0 l/m 6,0 km/h (2 Bft) S 180 11,6 C 15,8 C 10,3 km/h (2 Bft)
23.06.2013 12:45 16,3 C 75 % 1020,2 hPa 0,0 l/m 5,5 km/h (1 Bft) S 180 11,9 C 16,2 C 8,9 km/h (2 Bft)
23.06.2013 12:50 17,0 C 71 % 1020,2 hPa 0,0 l/m 6,6 km/h (2 Bft) S 180 11,7 C 17,1 C 8,0 km/h (2 Bft)
23.06.2013 12:55 17,7 C 69 % 1020,2 hPa 0,0 l/m 7,1 km/h (2 Bft) S-SO 157 11,9 C 17,5 C 8,7 km/h (2 Bft)
23.06.2013 13:00 18,2 C 67 % 1020,2 hPa 0,0 l/m 6,6 km/h (2 Bft) S 180 12,0 C 18,6 C 5,3 km/h (1 Bft)
23.06.2013 13:05 17,7 C 67 % 1020,6 hPa 0,0 l/m 6,0 km/h (2 Bft) S-SW 202 11,5 C 18,9 C 7,1 km/h (2 Bft)
23.06.2013 13:10 17,3 C 68 % 1020,6 hPa 0,0 l/m 6,3 km/h (2 Bft) S-SW 202 11,3 C 18,3 C 17,4 km/h (3 Bft)
23.06.2013 13:15 17,7 C 67 % 1020,6 hPa 0,0 l/m 6,8 km/h (2 Bft) S 180 11,5 C 18,3 C 8,9 km/h (2 Bft)
23.06.2013 13:20 17,3 C 66 % 1020,6 hPa 0,0 l/m 7,2 km/h (2 Bft) SO 135 10,9 C 18,0 C 17,5 km/h (3 Bft)
23.06.2013 13:25 18,0 C 66 % 1020,4 hPa 0,0 l/m 7,9 km/h (2 Bft) S 180 11,6 C 17,8 C 9,0 km/h (2 Bft)
23.06.2013 13:30 18,3 C 63 % 1020,4 hPa 0,0 l/m 8,5 km/h (2 Bft) S 180 11,1 C 18,0 C 9,5 km/h (2 Bft)
23.06.2013 13:35 19,5 C 61 % 1020,4 hPa 0,0 l/m 7,6 km/h (2 Bft) S 180 11,8 C 19,4 C 7,6 km/h (2 Bft)
23.06.2013 13:40 20,5 C 59 % 1020,4 hPa 0,0 l/m 5,5 km/h (1 Bft) O-SO 112 12,2 C 21,1 C 4,3 km/h (1 Bft)
23.06.2013 13:45 19,5 C 59 % 1020,3 hPa 0,0 l/m 6,3 km/h (2 Bft) W-SW 247 11,3 C 21,5 C 4,2 km/h (1 Bft)
23.06.2013 13:50 18,8 C 61 % 1020,3 hPa 0,0 l/m 6,6 km/h (2 Bft) S 180 11,1 C 20,8 C 7,2 km/h (2 Bft)
23.06.2013 13:55 18,5 C 63 % 1020,3 hPa 0,0 l/m 6,6 km/h (2 Bft) S-SW 202 11,3 C 20,3 C 6,8 km/h (2 Bft)
23.06.2013 14:00 18,1 C 63 % 1020,3 hPa 0,0 l/m 7,4 km/h (2 Bft) S 180 10,9 C 19,1 C 8,7 km/h (2 Bft)
23.06.2013 14:05 18,3 C 63 % 1020,3 hPa 0,0 l/m 7,4 km/h (2 Bft) S-SO 157 11,1 C 18,9 C 6,6 km/h (2 Bft)
23.06.2013 14:10 17,6 C 63 % 1020,3 hPa 0,0 l/m 7,2 km/h (2 Bft) S 180 10,5 C 18,3 C 6,8 km/h (2 Bft)
23.06.2013 14:15 17,0 C 65 % 1020,3 hPa 0,0 l/m 6,6 km/h (2 Bft) S 180 10,4 C 17,9 C 5,5 km/h (1 Bft)
23.06.2013 14:20 16,6 C 67 % 1020,3 hPa 0,0 l/m 6,0 km/h (2 Bft) N-NO 22 10,4 C 17,3 C 10,6 km/h (2 Bft)
23.06.2013 14:25 16,4 C 69 % 1019,8 hPa 0,0 l/m 6,0 km/h (2 Bft) S 180 10,7 C 17,0 C 6,0 km/h (2 Bft)
23.06.2013 14:30 16,1 C 70 % 1019,8 hPa 0,0 l/m 6,0 km/h (2 Bft) SO 135 10,6 C 16,6 C 5,5 km/h (1 Bft)
23.06.2013 14:35 16,0 C 70 % 1019,8 hPa 0,0 l/m 5,8 km/h (2 Bft) S 180 10,5 C 16,3 C 6,9 km/h (2 Bft)
23.06.2013 14:40 15,8 C 71 % 1019,8 hPa 0,0 l/m 5,1 km/h (1 Bft) S 180 10,6 C 16,1 C 5,0 km/h (1 Bft)
23.06.2013 14:45 15,8 C 71 % 1019,6 hPa 0,0 l/m 4,0 km/h (1 Bft) SO 135 10,6 C 16,1 C 3,1 km/h (1 Bft)
23.06.2013 14:50 15,6 C 72 % 1019,6 hPa 0,0 l/m 4,3 km/h (1 Bft) S-SW 202 10,6 C 16,0 C 11,1 km/h (2 Bft)
23.06.2013 14:55 15,6 C 72 % 1019,6 hPa 0,0 l/m 5,8 km/h (2 Bft) S 180 10,6 C 15,9 C 9,5 km/h (2 Bft)
23.06.2013 15:00 15,4 C 73 % 1019,6 hPa 0,0 l/m 6,9 km/h (2 Bft) S 180 10,6 C 15,5 C 13,4 km/h (3 Bft)
23.06.2013 15:05 15,3 C 73 % 1019,7 hPa 0,0 l/m 5,8 km/h (2 Bft) S 180 10,5 C 15,5 C 2,7 km/h (1 Bft)
23.06.2013 15:10 15,1 C 74 % 1019,7 hPa 0,0 l/m 4,8 km/h (1 Bft) S 180 10,5 C 15,3 C 5,6 km/h (1 Bft)
23.06.2013 15:15 15,0 C 74 % 1019,7 hPa 0,0 l/m 5,8 km/h (2 Bft) S 180 10,4 C 15,2 C 8,5 km/h (2 Bft)
23.06.2013 15:20 14,7 C 75 % 1019,7 hPa 0,0 l/m 6,1 km/h (2 Bft) S-SW 202 10,3 C 15,0 C 7,4 km/h (2 Bft)
23.06.2013 15:25 14,6 C 75 % 1019,8 hPa 0,0 l/m 5,6 km/h (1 Bft) S 180 10,2 C 14,9 C 7,9 km/h (2 Bft)
23.06.2013 15:30 14,4 C 75 % 1019,8 hPa 0,0 l/m 5,8 km/h (2 Bft) S-SW 202 10,0 C 14,5 C 4,2 km/h (1 Bft)
23.06.2013 15:35 14,3 C 76 % 1019,8 hPa 0,0 l/m 6,0 km/h (2 Bft) S-SO 157 10,1 C 14,4 C 12,7 km/h (3 Bft)
23.06.2013 15:40 14,1 C 77 % 1019,8 hPa 0,0 l/m 5,5 km/h (1 Bft) SO 135 10,1 C 14,1 C 4,5 km/h (1 Bft)
23.06.2013 15:45 13,7 C 80 % 1019,6 hPa 0,0 l/m 5,3 km/h (1 Bft) S-SO 157 10,3 C 13,6 C 7,7 km/h (2 Bft)
23.06.2013 15:50 13,0 C 83 % 1019,6 hPa 0,7 l/m 3,7 km/h (1 Bft) N-NW 337 10,2 C 13,1 C 1,9 km/h (1 Bft)
23.06.2013 15:55 12,9 C 85 % 1019,6 hPa 0,0 l/m 3,1 km/h (1 Bft) O-NO 67 10,4 C 12,8 C 2,7 km/h (1 Bft)
23.06.2013 16:00 12,7 C 88 % 1019,6 hPa 0,0 l/m 2,9 km/h (1 Bft) S 180 10,8 C 12,6 C 9,2 km/h (2 Bft)
23.06.2013 16:05 12,7 C 89 % 1019,8 hPa 0,0 l/m 3,1 km/h (1 Bft) S 180 10,9 C 12,5 C 4,8 km/h (1 Bft)
23.06.2013 16:10 12,5 C 90 % 1019,8 hPa 0,7 l/m 3,1 km/h (1 Bft) S-SW 202 10,9 C 12,5 C 2,4 km/h (1 Bft)
23.06.2013 16:15 12,6 C 91 % 1019,8 hPa 0,0 l/m 3,1 km/h (1 Bft) O-SO 112 11,2 C 12,5 C 2,3 km/h (1 Bft)
23.06.2013 16:20 12,6 C 92 % 1019,8 hPa 0,7 l/m 2,4 km/h (1 Bft) SO 135 11,3 C 12,5 C 1,8 km/h (1 Bft)
23.06.2013 16:25 12,4 C 92 % 1019,6 hPa 0,7 l/m 2,7 km/h (1 Bft) S-SO 157 11,1 C 12,5 C 12,1 km/h (2 Bft)
23.06.2013 16:30 12,3 C 92 % 1019,6 hPa 0,7 l/m 4,8 km/h (1 Bft) S 180 11,0 C 12,4 C 7,9 km/h (2 Bft)
23.06.2013 16:35 12,2 C 93 % 1019,6 hPa 0,0 l/m 5,8 km/h (2 Bft) SO 135 11,1 C 12,1 C 4,2 km/h (1 Bft)
23.06.2013 16:40 12,1 C 93 % 1019,6 hPa 0,0 l/m 6,4 km/h (2 Bft) S 180 11,0 C 11,8 C 4,3 km/h (1 Bft)
23.06.2013 16:45 12,0 C 93 % 1019,6 hPa 0,7 l/m 7,1 km/h (2 Bft) S 180 10,9 C 11,0 C 12,4 km/h (3 Bft)
23.06.2013 16:50 11,9 C 93 % 1019,6 hPa 0,7 l/m 7,2 km/h (2 Bft) S-SO 157 10,8 C 10,8 C 11,3 km/h (2 Bft)
23.06.2013 16:55 11,9 C 93 % 1019,6 hPa 0,0 l/m 7,2 km/h (2 Bft) S-SO 157 10,8 C 10,8 C 10,1 km/h (2 Bft)
23.06.2013 17:00 11,8 C 93 % 1019,6 hPa 0,7 l/m 6,0 km/h (2 Bft) SO 135 10,7 C 11,6 C 7,6 km/h (2 Bft)
23.06.2013 17:05 11,9 C 94 % 1019,8 hPa 0,7 l/m 5,1 km/h (1 Bft) O 90 11,0 C 11,8 C 7,7 km/h (2 Bft)
23.06.2013 17:10 11,9 C 94 % 1019,8 hPa 0,0 l/m 5,0 km/h (1 Bft) N-NO 22 11,0 C 11,9 C 4,7 km/h (1 Bft)
23.06.2013 17:15 11,9 C 94 % 1019,8 hPa 0,0 l/m 5,0 km/h (1 Bft) SO 135 11,0 C 11,9 C 6,1 km/h (2 Bft)
23.06.2013 17:20 11,8 C 94 % 1019,8 hPa 0,7 l/m 3,5 km/h (1 Bft) O-SO 112 10,9 C 11,9 C 1,8 km/h (1 Bft)
23.06.2013 17:25 11,7 C 94 % 1020,0 hPa 0,0 l/m 4,0 km/h (1 Bft) O-SO 112 10,8 C 11,8 C 8,4 km/h (2 Bft)
23.06.2013 17:30 11,6 C 94 % 1020,0 hPa 0,0 l/m 5,5 km/h (1 Bft) S 180 10,7 C 11,4 C 6,6 km/h (2 Bft)
23.06.2013 17:35 11,4 C 94 % 1020,0 hPa 0,7 l/m 6,8 km/h (2 Bft) S-SW 202 10,5 C 10,7 C 8,9 km/h (2 Bft)
23.06.2013 17:40 11,4 C 94 % 1020,0 hPa 0,0 l/m 7,1 km/h (2 Bft) S 180 10,5 C 10,3 C 6,6 km/h (2 Bft)
23.06.2013 17:45 11,3 C 94 % 1019,7 hPa 0,0 l/m 7,7 km/h (2 Bft) S-SO 157 10,4 C 9,7 C 12,2 km/h (2 Bft)
23.06.2013 17:50 11,3 C 94 % 1019,7 hPa 0,7 l/m 7,4 km/h (2 Bft) S 180 10,4 C 9,9 C 8,2 km/h (2 Bft)
23.06.2013 17:55 11,3 C 94 % 1019,7 hPa 0,0 l/m 7,2 km/h (2 Bft) S 180 10,4 C 10,0 C 13,7 km/h (3 Bft)
23.06.2013 18:00 11,3 C 94 % 1019,7 hPa 0,7 l/m 6,6 km/h (2 Bft) S-SO 157 10,4 C 10,6 C 10,5 km/h (2 Bft)
23.06.2013 18:05 11,3 C 94 % 1019,9 hPa 0,0 l/m 6,6 km/h (2 Bft) S 180 10,4 C 10,6 C 6,4 km/h (2 Bft)
23.06.2013 18:10 11,3 C 94 % 1019,9 hPa 0,0 l/m 6,1 km/h (2 Bft) O-SO 112 10,4 C 10,7 C 6,6 km/h (2 Bft)
23.06.2013 18:15 11,1 C 94 % 1019,9 hPa 0,7 l/m 5,3 km/h (1 Bft) S 180 10,2 C 10,9 C 6,8 km/h (2 Bft)
23.06.2013 18:20 11,1 C 94 % 1019,9 hPa 0,0 l/m 5,5 km/h (1 Bft) S 180 10,2 C 10,9 C 3,2 km/h (1 Bft)
23.06.2013 18:25 11,0 C 94 % 1019,8 hPa 0,0 l/m 6,6 km/h (2 Bft) S-SO 157 10,1 C 10,3 C 12,1 km/h (2 Bft)
23.06.2013 18:30 10,9 C 94 % 1019,8 hPa 0,7 l/m 6,1 km/h (2 Bft) S 180 10,0 C 10,4 C 3,7 km/h (1 Bft)
23.06.2013 18:35 11,0 C 94 % 1019,8 hPa 0,0 l/m 4,8 km/h (1 Bft) S-SO 157 10,1 C 10,9 C 1,8 km/h (1 Bft)
23.06.2013 18:40 11,1 C 94 % 1019,8 hPa 0,0 l/m 3,7 km/h (1 Bft) S 180 10,2 C 11,0 C 3,4 km/h (1 Bft)
23.06.2013 18:45 11,1 C 94 % 1019,9 hPa 0,0 l/m 4,5 km/h (1 Bft) S 180 10,2 C 11,1 C 6,1 km/h (2 Bft)
23.06.2013 18:50 11,1 C 94 % 1019,9 hPa 0,0 l/m 5,3 km/h (1 Bft) S 180 10,2 C 10,8 C 12,2 km/h (2 Bft)
23.06.2013 18:55 10,9 C 95 % 1019,9 hPa 0,0 l/m 5,3 km/h (1 Bft) S-SO 157 10,1 C 10,8 C 4,5 km/h (1 Bft)
23.06.2013 19:00 10,9 C 95 % 1019,9 hPa 0,0 l/m 5,3 km/h (1 Bft) S-SO 157 10,1 C 10,8 C 5,3 km/h (1 Bft)
23.06.2013 19:05 10,9 C 95 % 1020,2 hPa 0,0 l/m 5,0 km/h (1 Bft) SO 135 10,1 C 10,9 C 7,9 km/h (2 Bft)
23.06.2013 19:10 10,8 C 95 % 1020,2 hPa 0,0 l/m 5,0 km/h (1 Bft) S-SO 157 10,0 C 10,8 C 8,2 km/h (2 Bft)
23.06.2013 19:15 10,7 C 95 % 1020,2 hPa 0,0 l/m 5,8 km/h (2 Bft) S 180 9,9 C 10,4 C 9,5 km/h (2 Bft)
23.06.2013 19:20 10,7 C 95 % 1020,2 hPa 0,7 l/m 6,1 km/h (2 Bft) S-SW 202 9,9 C 10,3 C 9,5 km/h (2 Bft)
23.06.2013 19:25 10,6 C 95 % 1020,7 hPa 0,0 l/m 5,6 km/h (1 Bft) S 180 9,8 C 10,4 C 4,5 km/h (1 Bft)
23.06.2013 19:30 10,6 C 95 % 1020,7 hPa 0,0 l/m 5,8 km/h (2 Bft) O-NO 67 9,8 C 10,3 C 2,9 km/h (1 Bft)
23.06.2013 19:35 10,6 C 95 % 1020,7 hPa 0,0 l/m 5,6 km/h (1 Bft) O 90 9,8 C 10,3 C 7,7 km/h (2 Bft)
23.06.2013 19:40 10,6 C 95 % 1020,7 hPa 0,7 l/m 4,5 km/h (1 Bft) S 180 9,8 C 10,6 C 3,2 km/h (1 Bft)
23.06.2013 19:45 10,6 C 95 % 1020,8 hPa 0,0 l/m 4,0 km/h (1 Bft) O-SO 112 9,8 C 10,6 C 5,0 km/h (1 Bft)
23.06.2013 19:50 10,5 C 95 % 1020,8 hPa 0,7 l/m 2,7 km/h (1 Bft) SO 135 9,7 C 10,6 C 2,7 km/h (1 Bft)
23.06.2013 19:55 10,5 C 95 % 1020,8 hPa 0,7 l/m 2,7 km/h (1 Bft) SO 135 9,7 C 10,5 C 3,7 km/h (1 Bft)
23.06.2013 20:00 10,5 C 95 % 1020,8 hPa 0,0 l/m 2,7 km/h (1 Bft) S-SO 157 9,7 C 10,5 C 1,8 km/h (1 Bft)
23.06.2013 20:05 10,5 C 95 % 1021,0 hPa 0,7 l/m 2,7 km/h (1 Bft) S-SO 157 9,7 C 10,4 C 3,4 km/h (1 Bft)
23.06.2013 20:10 10,5 C 95 % 1021,0 hPa 0,0 l/m 2,6 km/h (1 Bft) S-SW 202 9,7 C 10,4 C 4,7 km/h (1 Bft)
23.06.2013 20:15 10,4 C 95 % 1021,0 hPa 0,7 l/m 1,9 km/h (1 Bft) S 180 9,6 C 10,4 C 0,0 km/h (0 Bft)
23.06.2013 20:20 10,4 C 95 % 1021,0 hPa 0,0 l/m 1,9 km/h (1 Bft) O 90 9,6 C 10,4 C 3,4 km/h (1 Bft)
23.06.2013 20:25 10,4 C 95 % 1020,7 hPa 0,7 l/m 1,9 km/h (1 Bft) O 90 9,6 C 10,4 C 2,6 km/h (1 Bft)
23.06.2013 20:30 10,3 C 95 % 1020,7 hPa 0,0 l/m 1,1 km/h (1 Bft) SW 225 9,5 C 10,4 C 0,0 km/h (0 Bft)
23.06.2013 20:35 10,4 C 95 % 1020,7 hPa 0,7 l/m 0,6 km/h (0 Bft) O 90 9,6 C 10,4 C 1,9 km/h (1 Bft)
23.06.2013 20:40 10,3 C 95 % 1020,7 hPa 0,0 l/m 0,8 km/h (0 Bft) W 270 9,5 C 10,3 C 0,0 km/h (0 Bft)
23.06.2013 20:45 10,3 C 95 % 1021,1 hPa 0,0 l/m 0,8 km/h (0 Bft) N-NO 22 9,5 C 10,3 C 0,0 km/h (0 Bft)
23.06.2013 20:50 10,2 C 95 % 1021,1 hPa 0,0 l/m 0,3 km/h (0 Bft) S-SO 157 9,4 C 10,3 C 0,0 km/h (0 Bft)
23.06.2013 20:55 10,2 C 95 % 1021,1 hPa 0,0 l/m 0,3 km/h (0 Bft) NO 45 9,4 C 10,2 C 1,9 km/h (1 Bft)
23.06.2013 21:00 10,1 C 95 % 1021,1 hPa 0,0 l/m 1,0 km/h (0 Bft) N 360 9,3 C 10,2 C 2,3 km/h (1 Bft)
23.06.2013 21:05 10,0 C 95 % 1021,1 hPa 0,7 l/m 1,0 km/h (0 Bft) O-SO 112 9,2 C 10,1 C 0,0 km/h (0 Bft)
23.06.2013 21:10 9,9 C 95 % 1021,1 hPa 0,0 l/m 0,2 km/h (0 Bft) N-NW 337 9,1 C 10,0 C 0,0 km/h (0 Bft)
23.06.2013 21:15 9,9 C 95 % 1021,1 hPa 0,7 l/m 0,0 km/h (0 Bft) NW 315 9,1 C 10,0 C 0,0 km/h (0 Bft)
23.06.2013 21:20 10,0 C 95 % 1021,1 hPa 0,0 l/m 0,3 km/h (0 Bft) O-NO 67 9,2 C 10,0 C 0,0 km/h (0 Bft)
23.06.2013 21:25 9,9 C 95 % 1021,2 hPa 0,0 l/m 1,1 km/h (1 Bft) N-NO 22 9,1 C 10,0 C 0,0 km/h (0 Bft)
23.06.2013 21:30 9,9 C 95 % 1021,2 hPa 0,0 l/m 1,1 km/h (1 Bft) N 360 9,1 C 9,9 C 1,9 km/h (1 Bft)
23.06.2013 21:35 9,9 C 95 % 1021,2 hPa 0,0 l/m 1,3 km/h (1 Bft) N 360 9,1 C 9,8 C 5,1 km/h (1 Bft)
23.06.2013 21:40 9,8 C 95 % 1021,2 hPa 0,0 l/m 1,4 km/h (1 Bft) N-NW 337 9,0 C 9,7 C 0,0 km/h (0 Bft)
23.06.2013 21:45 9,8 C 95 % 1021,2 hPa 0,7 l/m 1,0 km/h (0 Bft) N 360 9,0 C 9,7 C 0,0 km/h (0 Bft)
23.06.2013 21:50 9,7 C 95 % 1021,2 hPa 0,0 l/m 0,2 km/h (0 Bft) N 360 8,9 C 9,7 C 0,0 km/h (0 Bft)
23.06.2013 21:55 9,7 C 95 % 1021,2 hPa 0,0 l/m 0,2 km/h (0 Bft) N-NW 337 8,9 C 9,7 C 0,0 km/h (0 Bft)
23.06.2013 22:00 9,6 C 95 % 1021,2 hPa 0,0 l/m 0,5 km/h (0 Bft) SO 135 8,8 C 9,6 C 0,0 km/h (0 Bft)
23.06.2013 22:05 9,6 C 95 % 1021,4 hPa 0,0 l/m 0,3 km/h (0 Bft) W-SW 247 8,8 C 9,5 C 0,0 km/h (0 Bft)
23.06.2013 22:10 9,6 C 95 % 1021,4 hPa 0,0 l/m 1,1 km/h (1 Bft) S 180 8,8 C 9,5 C 2,4 km/h (1 Bft)
23.06.2013 22:15 9,5 C 95 % 1021,4 hPa 0,0 l/m 1,1 km/h (1 Bft) S 180 8,7 C 9,5 C 0,0 km/h (0 Bft)
23.06.2013 22:20 9,5 C 95 % 1021,4 hPa 0,0 l/m 0,2 km/h (0 Bft) O 90 8,7 C 9,4 C 0,0 km/h (0 Bft)
23.06.2013 22:25 9,4 C 95 % 1021,2 hPa 0,0 l/m 0,2 km/h (0 Bft) O 90 8,6 C 9,4 C 0,0 km/h (0 Bft)
23.06.2013 22:30 9,4 C 95 % 1021,2 hPa 0,0 l/m 0,5 km/h (0 Bft) NO 45 8,6 C 9,4 C 1,9 km/h (1 Bft)
23.06.2013 22:35 9,4 C 95 % 1021,2 hPa 0,7 l/m 0,5 km/h (0 Bft) NO 45 8,6 C 9,4 C 0,0 km/h (0 Bft)
23.06.2013 22:40 9,4 C 95 % 1021,2 hPa 0,0 l/m 0,3 km/h (0 Bft) O-SO 112 8,6 C 9,3 C 0,0 km/h (0 Bft)
23.06.2013 22:45 9,4 C 95 % 1021,3 hPa 0,0 l/m 0,2 km/h (0 Bft) S-SO 157 8,6 C 9,3 C 1,8 km/h (1 Bft)
23.06.2013 22:50 9,4 C 96 % 1021,3 hPa 0,0 l/m 0,8 km/h (0 Bft) NO 45 8,8 C 9,4 C 2,9 km/h (1 Bft)
23.06.2013 22:55 9,4 C 96 % 1021,3 hPa 0,0 l/m 1,0 km/h (0 Bft) SW 225 8,8 C 9,3 C 2,4 km/h (1 Bft)
23.06.2013 23:00 9,3 C 96 % 1021,3 hPa 0,0 l/m 0,8 km/h (0 Bft) O-NO 67 8,7 C 9,3 C 2,3 km/h (1 Bft)
23.06.2013 23:05 9,3 C 95 % 1021,6 hPa 0,0 l/m 0,6 km/h (0 Bft) O 90 8,5 C 9,2 C 1,6 km/h (1 Bft)
23.06.2013 23:10 9,2 C 95 % 1021,6 hPa 0,0 l/m 1,1 km/h (1 Bft) NO 45 8,4 C 9,2 C 1,6 km/h (1 Bft)
23.06.2013 23:15 9,2 C 96 % 1021,6 hPa 0,0 l/m 1,4 km/h (1 Bft) O 90 8,6 C 9,1 C 1,6 km/h (1 Bft)
23.06.2013 23:20 9,0 C 95 % 1021,6 hPa 0,0 l/m 0,8 km/h (0 Bft) O 90 8,2 C 9,1 C 1,6 km/h (1 Bft)
23.06.2013 23:25 8,9 C 96 % 1021,5 hPa 0,0 l/m 1,0 km/h (0 Bft) N-NO 22 8,3 C 9,0 C 3,2 km/h (1 Bft)
23.06.2013 23:30 8,9 C 96 % 1021,5 hPa 0,0 l/m 1,0 km/h (0 Bft) N-NO 22 8,3 C 8,9 C 2,7 km/h (1 Bft)
23.06.2013 23:35 8,9 C 96 % 1021,5 hPa 0,0 l/m 0,6 km/h (0 Bft) O-NO 67 8,3 C 8,8 C 1,9 km/h (1 Bft)
23.06.2013 23:40 8,9 C 96 % 1021,5 hPa 0,0 l/m 0,5 km/h (0 Bft) NO 45 8,3 C 8,8 C 0,0 km/h (0 Bft)
23.06.2013 23:45 8,9 C 96 % 1021,4 hPa 0,0 l/m 0,5 km/h (0 Bft) NO 45 8,3 C 8,8 C 2,9 km/h (1 Bft)
23.06.2013 23:50 8,9 C 96 % 1021,4 hPa 0,0 l/m 0,3 km/h (0 Bft) O-NO 67 8,3 C 8,7 C 0,0 km/h (0 Bft)
23.06.2013 23:55 8,8 C 96 % 1021,4 hPa 0,0 l/m 0,3 km/h (0 Bft) O-NO 67 8,2 C 8,7 C 0,0 km/h (0 Bft)
_ Min-Zeit 23:55 11:05 06:20 - 21:15 - - 23:55 23:55 23:55
Minimum _ 8,8 C 58 % 1019,0 hPa - 0,0 km/h (0 Bft) - - 8,2 C 8,7 C 0,0 km/h (0 Bft)
_ Max-Zeit 11:00 23:55 23:20 22:35 13:30 - - 07:10 09:55 13:20
Maximum _ 21,2 C 96 % 1021,6 hPa 0,7 l/m 8,5 km/h
S (2 Bft)
- - 14,7 C 22,1 C 17,5 km/h
SO (3 Bft)
Durchschnitt _ 13,3 C 84 % 1020,0 hPa #18,5 l/m 2,9 km/h (1 Bft) S - 10,5 C 13,5 C 3,9 km/h (1 Bft)